ONEWEB-0700, 61606

Orbit data source: Space-Track

ONEWEB-0700, 61606 is a payload satellite owned by Eut. One Web (UK) in LEO that was launched on Sun, 20 Oct 2024 UTC via an FALCON 9 launch vehicle from the Air Force Western Test Range (AFWTR). Payload-class satellites include a variety of spacecraft equipped with specific instruments for various scientific and technological missions. These include communications satellites like Starlink; space stations such as the ISS; scientific satellites like the Hubble; Earth observation satellites from companies like Planet Labs, Umbra, and HawkEye 360; GPS; miniature CubeSats for education and research; and military/defense satellites.

Loading next visibility...
Identifier
61606, 2024-188N
Orbit
LEO
Country
Flag of UKUK
Related business
Manufacturer
One Web
Mission
Operational Commercial Communications
Bus & Motor
ARROW, Unknown motor
Mass
148 kg wet, ~140 kg dry
Launch date (UTC)
2024-10-20 (2 years ago)
Launch vehicle
FALCON 9
Launch site
Air Force Western Test Range (AFWTR)
Object type
Payload
Rocket body
Debris
Shape & HBR
Trap Box + 2 Pan, 6.7 m
Radar Cross Section
3.464 m², Large (>1 m²)

Expand to show TLE details & history
Last TLE update: 16 hours ago

TLE from 16 hours ago
0 ONEWEB-0700
1 61606U 24188N   26207.99920887 -.00000451  00000-0 -13293-2 0  9993
2 61606  87.8842  28.2467 0002364  90.0780 270.0619 13.10374690 88517
Epoch: 2026-07-26T23:58Z
TLE epoch observation values (Epoch: 2026-07-26T23:58:51.646Z)
Latitude
0.00006°
Longitude
83.84243°
Altitude
1,224.596 km
Speed
7.242 km/s
True Right ascension
01h 52m 59s
True Declination
0° 00' 00"
Sunlit
Object was in daylight at epoch
Visualization orbit readout
Latitude
Unknown
Longitude
Unknown
Altitude
Unknown
Speed
Unknown
Apparent Right ascension
Unknown
Apparent Declination
Unknown
Sunlit
N/A
Visualization observer readout
Local Sidereal Time
05:37:37
Azimuth
Unknown
Elevation
Unknown
Doppler factor
Unknown
Orbital elements
Apogee altitude
1,220.626 km
Perigee altitude
1,217.034 km
Semi-major axis
7,596.967 km
Eccentricity
0.00024
Inclination
87.8842°
RAAN
28.2467°
Arg. of periapsis
90.078°
True anomaly
270.03481°
Mean anomaly
270.0619°
Eccentric anomaly
270.04836°
Mean motion
3.2778 °/min
Orbital period
109.83 mins
BSTAR
-0.0013293
Loading maneuver chart data...
Computing Atmospheric mass density...
Loading historical data...
Loading historical data...
Loading historical data...
Loading historical data...
Loading historical data...
Loading historical data...
Loading historical data...

Documentation

Showing up to 5 results
|